Flag for U.S.A. Weather past 2 weeks in Buffalo, New York, U.S.A.

Now
76 °F

Passing clouds.


Feels Like: 78 °F
Forecast: 68 / 87 °F
Wind: 3 mph from South

Location: Greater Buffalo International Airport

Current Time: Jul 28, 2015 at 11:43:11 PM

Latest Report: Jul 28, 2015 at 10:54 PM


Visibility: 10 mi

Pressure: 29.99 "Hg

Humidity: 60%

Dew point: 61 °F

Location of BuffaloLocation

Historic Weather in Buffalo — Graph

°F

Buffalo temperature yesterday

Maximum temperature yesterday: 89 °F (at 3:54 PM)
Minimum temperature yesterday: 64 °F (at 5:54 AM)
Average temperature yesterday: 77 °F

Past Weeks' High & Low Weather Summary

 TemperatureHumidityPressure
High89 °F (Jul 27, 3:54 PM)93% (Jul 14, 11:54 AM)30.13 "Hg (Jul 14, 11:54 AM)
Low52 °F (Jul 16, 5:54 AM)30% (Jul 23, 5:54 PM)29.51 "Hg (Jul 14, 3:54 PM)
Average72 °F66%29.88 "Hg
* Reported Jul 13 9:54 PM — Jul 28 9:54 PM, Buffalo, Weather by CustomWeather, © 2015

Note: Actual official high and low records may vary slightly from our data, if they occured in-between our weather recording intervals... More about our weather records

Advertising

Buffalo weather history for previous 24 hours

 ConditionsComfort  
Time TempWeatherWind HumidityBarometerVisibility
9:54 PM
Tue, Jul 28
80 °FPassing clouds.3 mph47%29.98 "Hg10 mi
8:54 PM80 °FPassing clouds.6 mph47%29.96 "Hg10 mi
7:54 PM83 °FPartly sunny.6 mph48%29.96 "Hg10 mi
6:54 PM87 °FScattered clouds.3 mph42%29.98 "Hg10 mi
5:54 PM88 °FScattered clouds.8 mph39%29.98 "Hg10 mi
4:54 PM88 °FPassing clouds.7 mph39%29.98 "Hg10 mi
3:54 PM88 °FScattered clouds.8 mph39%29.98 "Hg10 mi
2:54 PM89 °FScattered clouds.12 mph41%29.98 "Hg10 mi
1:54 PM87 °FPassing clouds.5 mph39%30.01 "Hg10 mi
12:54 PM86 °FPassing clouds.N/A42%30.00 "Hg10 mi
11:54 AM85 °FPassing clouds.7 mph45%30.03 "Hg10 mi
10:54 AM83 °FPassing clouds.6 mph51%30.03 "Hg10 mi
9:54 AM81 °FPassing clouds.5 mph53%30.03 "Hg10 mi
8:54 AM77 °FPassing clouds.No wind64%30.03 "Hg10 mi
7:54 AM71 °FPassing clouds.5 mph76%30.03 "Hg10 mi
6:54 AM67 °FClear.5 mph85%30.03 "Hg10 mi
5:54 AM67 °FClear.5 mph85%30.01 "Hg10 mi
4:54 AM69 °FClear.No wind81%30.01 "Hg10 mi
3:54 AM70 °FClear.3 mph81%30.01 "Hg10 mi
2:54 AM71 °FClear.3 mph78%30.02 "Hg10 mi
1:54 AM71 °FClear.6 mph81%30.02 "Hg10 mi
12:54 AM73 °FClear.6 mph76%30.02 "Hg10 mi
11:54 PM
Mon, Jul 27
74 °FPassing clouds.5 mph71%30.01 "Hg10 mi
Weather by CustomWeather, © 2015

See weather overviewHow to use our weather pages